Location: Cazavet
(43.0017°N, 1.0431°E)
Time: 08:58:36
(UTC+00:00)

Cosmos 1500 Rocket - Pass Details

Date: 18 January 2026
Orbit: 597 x 623 km, 82.5° (Epoch: 9 February)

Event Time Altitude Azimuth Distance (km) Brightness Sun altitude
Rises 05:15:57 0° 192° (SSW) 2,850 6.9 -22.8°
Reaches altitude 10° 05:18:09 10° 195° (SSW) 1,955 6.0 -22.4°
Maximum altitude 05:22:28 71° 279° (W) 652 3.4 -21.7°
Drops below altitude 10° 05:26:52 10° 4° (N) 1,987 6.1 -20.9°
Sets 05:29:07 0° 7° (N) 2,901 7.0 -20.5°
